STARLINK-32419, 61637

Orbit data source: Space-Track

STARLINK-32419, 61637 is a payload satellite owned by SpaceX/Seattle (US) in LEO that was launched on Wed, 23 Oct 2024 UTC via an FALCON 9 launch vehicle from the Air Force Eastern Test Range (AFETR). Payload-class satellites include a variety of spacecraft equipped with specific instruments for various scientific and technological missions. These include communications satellites like Starlink; space stations such as the ISS; scientific satellites like the Hubble; Earth observation satellites from companies like Planet Labs, Umbra, and HawkEye 360; GPS; miniature CubeSats for education and research; and military/defense satellites.

Loading next visibility...
Identifier
61637, 2024-191S
Orbit
LEO
Country
Flag of USUS
Related business
Manufacturer
SpaceX/Seattle
Mission
Operational Commercial Communications
Bus & Motor
STARLINK V2M, Unknown motor
Mass
730 kg wet, ~700 kg dry
Launch date (UTC)
2024-10-23 (2 years ago)
Launch vehicle
FALCON 9
Launch site
Air Force Eastern Test Range (AFETR)
Object type
Payload
Rocket body
Debris
Shape & HBR
Box + 2 Pan, 17.7 m
Radar Cross Section
33.884 m², Large (>1 m²)

Expand to show TLE details & history
Last TLE update: 1 day ago

TLE from 1 day ago
0 STARLINK-32419
1 61637U 24191S   26170.62145658  .00000270  00000-0  19329-4 0  9990
2 61637  43.0030 299.0087 0001231 234.1214 125.9523 15.27578255 93123
Epoch: 2026-06-19T14:54Z
TLE epoch observation values (Epoch: 2026-06-19T14:54:53.848Z)
Latitude
-0.00005°
Longitude
167.43648°
Altitude
483.326 km
Speed
7.625 km/s
True Right ascension
19h 56m 02s
True Declination
0° 00' 00"
Sunlit
Object was in full shadow at epoch
Visualization orbit readout
Latitude
Unknown
Longitude
Unknown
Altitude
Unknown
Speed
Unknown
Apparent Right ascension
Unknown
Apparent Declination
Unknown
Sunlit
N/A
Visualization observer readout
Local Sidereal Time
02:05:57
Azimuth
Unknown
Elevation
Unknown
Doppler factor
Unknown
Orbital elements
Apogee altitude
485.844 km
Perigee altitude
484.154 km
Semi-major axis
6,863.136 km
Eccentricity
0.00012
Inclination
43.003°
RAAN
299.0087°
Arg. of periapsis
234.1214°
True anomaly
125.96372°
Mean anomaly
125.9523°
Eccentric anomaly
125.95801°
Mean motion
3.81733 °/min
Orbital period
94.31 mins
BSTAR
0.000019329
Loading maneuver chart data...
Computing Atmospheric mass density...
Loading historical data...
Loading historical data...
Loading historical data...
Loading historical data...
Loading historical data...
Loading historical data...
Loading historical data...

Documentation

Showing up to 5 results
|